Terminal Aerodrome Forecast
Issued by NWS

Home | Current Version | Previous Version | Text Only | Print | Product List | Glossary On
Versions: 1 2 3 4 5 6 7 8 9 10 11 12 13 14 15 16 17
000
FTUS41 KGYX 212320
TAFHIE
TAF
KHIE 212320Z 2200/2224 09007KT P6SM OVC045
     FM220500 03009KT 2SM -RA BR OVC005=

USA.gov is the U.S. government's official web portal to all federal, state and local government web resources and services.